Wind_Speed
24 24 25 26 26 26 27 27 27 28 28 28 29 29 30 30 31 32 32 33 33 32 32 31 30 29 29 30 30 29 28 29 28 30 28 22 24 26 22 21 20 19 19 18 16 15 14 13 12 11 11 10 11 13 12 14 14 13 15 15 16 16 16 15 10 8 9 6 4 4 8 9 10 13 11 12 11 8 14 12 8 11 11 13 12 9 11 11
24 24 25 25 26 26 27 27 28 28 28 28 28 29 29 29 30 31 32 32 33 33 32 32 31 30 30 30 29 29 29 29 30 32 26 22 27 25 22 22 21 20 19 18 16 14 13 12 11 11 10 10 11 12 12 15 16 15 15 16 17 16 16 13 9 6 3 5 3 3 8 9 9 13 13 15 14 11 13 14 11 13 13 14 12 10 11 11
24 24 24 25 25 26 27 28 28 28 28 28 28 29 29 29 30 31 31 32 33 32 32 32 31 31 30 30 30 29 29 30 32 30 24 25 27 24 23 24 22 21 19 18 17 14 12 10 9 10 10 11 12 12 13 15 17 17 16 18 18 16 16 12 9 6 2 3 2 3 9 8 6 9 14 17 15 12 13 14 15 19 18 14 12 10 10 11
24 24 24 25 25 26 27 27 28 28 28 28 28 29 29 30 30 31 31 32 32 32 32 32 31 31 31 30 29 28 29 30 32 29 25 26 26 24 25 24 23 22 20 19 19 16 12 10 10 11 12 12 13 13 14 16 15 16 19 19 16 15 16 12 10 10 4 2 1 2 9 8 8 7 10 17 14 11 13 16 18 21 20 13 12 11 10 10
24 24 24 25 25 26 27 27 27 28 28 28 28 29 29 30 30 31 31 32 32 32 32 31 31 31 31 31 29 29 28 25 28 31 27 25 27 27 26 25 24 23 21 21 21 18 15 13 13 13 15 14 14 15 16 18 15 15 18 20 19 15 14 11 8 12 11 8 3 4 6 8 10 9 8 14 12 12 14 16 22 21 18 12 12 12 9 8
25 25 25 25 25 26 26 27 27 27 28 28 28 28 28 29 30 30 31 32 32 32 32 31 30 31 31 31 29 30 27 19 22 28 27 26 27 28 28 27 25 25 24 24 22 20 18 16 17 17 18 16 16 17 16 17 16 17 16 18 23 17 13 11 8 11 12 11 8 3 5 5 10 11 9 11 9 11 14 16 23 23 16 11 13 13 12 10
26 26 26 26 26 26 27 27 27 27 27 27 28 28 28 28 29 30 30 31 32 31 31 31 30 31 31 31 31 31 29 25 23 22 23 26 28 29 30 29 28 27 27 26 24 22 20 18 19 18 18 18 17 17 17 16 17 18 16 16 20 18 14 11 8 10 12 12 11 9 10 6 9 12 11 12 7 6 13 16 19 20 13 9 14 15 13 11
27 27 27 27 27 27 27 27 27 27 27 26 27 27 27 27 28 29 29 30 30 30 31 30 30 30 30 31 31 32 33 30 26 21 20 23 27 30 31 30 29 29 28 27 25 23 21 20 20 19 18 19 16 16 16 16 18 20 19 16 16 17 17 14 9 9 10 13 14 10 9 10 11 11 12 13 10 6 8 13 14 15 12 9 14 15 13 11
28 28 27 27 27 27 27 27 28 28 27 26 26 26 26 26 27 28 29 29 29 29 29 29 29 30 31 31 31 35 36 28 24 23 22 24 27 28 29 31 30 29 29 26 25 25 22 20 21 20 19 18 16 17 16 18 19 20 20 19 16 15 17 18 14 11 9 11 15 12 9 13 12 11 14 11 12 11 9 10 10 11 11 11 14 13 13 13
28 28 28 28 27 27 28 27 28 28 27 27 26 25 24 25 26 27 28 28 28 27 28 29 29 30 31 32 33 38 34 25 23 21 20 25 28 25 25 30 32 30 29 27 26 26 24 20 19 19 18 18 17 17 17 18 18 17 18 20 20 16 14 17 17 15 12 12 15 14 12 14 13 15 18 13 14 15 12 12 9 7 9 13 15 13 14 13
29 29 28 28 28 28 27 27 28 27 27 27 26 25 24 24 24 25 26 27 27 26 26 27 28 31 32 33 38 39 29 20 21 17 18 28 31 26 22 25 31 32 30 28 27 26 25 21 18 18 19 19 18 17 18 19 18 17 16 17 21 20 16 16 17 16 15 15 16 15 14 14 15 19 19 15 17 15 13 13 10 9 11 12 15 15 13 12
29 29 28 28 28 28 27 27 27 27 27 25 25 24 23 23 23 23 24 25 25 25 25 25 27 30 31 36 41 37 26 22 25 20 17 28 32 27 23 22 26 31 31 29 27 26 25 22 19 19 19 18 17 17 16 18 20 18 16 15 18 21 21 18 17 18 17 18 17 15 17 17 17 21 18 15 18 17 15 13 11 15 15 13 14 15 12 10
29 28 28 28 27 27 27 27 27 27 26 24 23 23 22 22 21 22 22 23 24 24 24 24 26 28 33 41 41 33 26 28 33 31 24 29 33 29 26 22 22 27 31 30 28 26 25 23 21 21 20 18 18 16 12 13 19 20 17 16 16 19 24 21 17 17 18 18 18 17 19 19 19 22 20 16 18 18 15 12 12 18 18 13 12 13 12 11
28 28 27 27 26 26 27 27 27 26 24 23 22 21 21 21 21 21 20 21 21 21 23 24 25 28 34 41 37 29 29 31 35 38 34 33 33 29 28 26 23 25 29 32 29 25 24 22 21 22 22 21 18 17 14 12 16 21 20 18 19 19 22 23 20 19 20 19 19 20 19 17 18 21 21 17 17 18 15 13 15 19 18 15 14 13 13 12
28 27 27 26 26 25 25 26 25 24 22 21 20 19 19 19 19 19 19 19 19 19 20 22 24 28 35 40 35 28 30 35 38 38 36 33 32 32 30 28 26 24 26 32 31 25 22 22 23 23 23 22 20 18 19 16 16 20 22 21 21 21 19 21 24 22 22 20 20 23 21 17 18 20 21 19 17 17 15 16 20 20 16 13 14 14 13 14
27 27 27 26 25 25 24 24 23 21 20 19 19 18 18 17 17 17 18 17 17 19 19 21 23 27 33 34 28 26 31 38 39 35 33 30 30 33 29 25 25 24 23 28 31 24 20 22 24 24 22 21 23 22 19 19 19 22 24 23 21 22 20 20 27 26 24 23 21 25 25 20 21 24 23 20 18 16 16 18 20 18 15 13 12 13 14 14
26 26 26 25 25 24 23 22 20 19 18 17 17 17 16 15 15 15 16 16 17 18 19 21 22 26 32 28 23 25 30 36 35 31 32 31 30 32 27 22 23 24 22 23 27 24 20 24 25 24 24 23 24 23 22 22 23 23 24 23 20 21 22 20 25 28 26 26 23 27 29 19 18 27 24 19 18 16 16 18 17 16 16 16 13 13 14 13
25 25 25 25 24 23 22 20 18 17 16 16 15 15 14 13 14 14 15 16 17 18 20 21 23 24 21 15 15 19 19 25 29 29 32 32 32 32 29 23 20 22 22 20 25 26 22 25 25 24 26 26 27 28 27 24 22 22 23 23 21 20 23 22 24 29 28 28 25 27 29 16 13 22 21 19 19 16 16 18 19 18 16 14 13 14 15 14
25 25 24 24 23 22 20 18 17 16 15 15 14 13 12 11 12 12 15 17 18 20 19 19 22 21 12 1 3 7 9 14 20 27 32 32 32 33 30 25 21 22 24 22 26 28 25 24 27 28 31 33 32 31 29 23 20 21 21 22 22 19 23 26 22 27 30 29 26 26 29 20 14 17 17 18 19 17 17 18 18 17 15 12 12 13 15 16
25 24 24 23 22 20 19 17 16 15 14 14 13 11 10 7 7 10 14 17 18 18 16 17 19 19 15 8 5 5 8 11 18 25 29 30 30 32 30 25 23 25 28 26 26 28 27 27 32 35 34 33 32 29 26 24 21 20 20 22 23 20 22 25 22 26 30 29 26 26 27 23 19 18 17 17 17 17 18 17 15 15 16 14 15 14 16 17
24 24 23 23 21 19 17 16 15 15 15 14 13 12 10 6 4 9 13 14 15 17 18 19 18 20 17 17 10 7 10 12 20 24 24 26 28 31 31 29 28 30 32 28 24 26 28 32 37 36 31 28 29 27 25 27 26 22 21 21 22 23 22 21 23 27 28 27 26 25 23 22 21 19 19 19 17 16 18 17 14 15 16 18 20 19 18 18
24 24 23 22 20 18 16 15 15 15 15 14 13 12 10 12 9 8 13 15 15 17 19 22 25 25 21 21 18 15 15 15 20 23 24 26 29 32 32 32 32 32 32 28 26 28 32 37 36 32 29 26 26 27 26 28 30 26 22 21 22 24 22 20 24 28 27 27 26 24 21 20 20 19 19 20 18 16 16 16 15 17 20 22 23 20 19 19
23 24 23 22 18 17 15 15 16 15 14 14 14 12 11 15 12 10 14 19 20 19 20 22 27 28 23 24 20 16 18 21 21 24 26 28 32 33 31 33 33 30 31 33 33 33 34 36 31 27 28 27 26 27 26 28 30 28 25 23 24 23 22 23 24 27 27 26 25 25 23 20 20 18 18 19 17 16 15 15 16 20 23 24 22 19 20 20
23 23 23 21 17 16 14 15 15 15 14 14 14 13 12 16 14 11 14 18 23 22 21 21 25 28 25 26 21 17 21 23 23 24 28 31 33 33 31 32 33 30 32 36 35 33 31 28 26 27 28 29 29 27 27 29 29 28 27 25 24 23 25 24 22 25 27 26 27 27 24 19 21 19 17 20 18 16 15 16 18 21 24 25 23 20 21 23
22 22 22 20 16 15 13 15 16 16 15 13 13 13 12 15 15 13 13 14 20 18 16 20 25 27 23 26 25 21 21 23 25 24 28 33 33 33 32 29 32 33 33 35 35 33 28 23 25 29 30 30 31 28 29 30 27 27 26 25 23 24 26 23 20 23 26 26 29 28 20 15 22 22 18 20 20 18 18 19 20 22 24 25 23 19 20 23
22 21 20 19 16 14 13 16 18 17 14 11 10 11 10 10 11 11 10 11 19 17 14 20 24 24 23 29 29 23 20 26 28 24 26 34 33 32 31 28 31 32 32 33 32 31 27 24 27 31 32 31 31 30 29 30 28 25 25 25 23 24 26 23 22 24 25 24 27 30 21 13 20 23 22 23 21 20 20 19 19 20 22 23 22 19 18 20
21 20 19 18 15 13 14 19 19 15 9 6 8 11 11 9 8 8 6 8 14 13 15 20 18 19 23 30 32 28 25 25 28 26 26 33 32 31 30 28 30 30 30 30 30 31 29 27 28 31 32 32 33 32 29 31 30 25 24 26 25 24 26 24 25 25 25 23 23 29 25 16 19 24 25 26 23 20 18 18 19 22 24 24 23 22 21 21
21 19 18 17 14 13 16 20 19 16 10 8 9 12 14 11 10 8 4 5 5 1 14 20 14 13 17 26 33 33 25 18 25 29 29 30 31 33 32 30 29 29 30 32 30 30 28 29 30 31 33 33 34 32 28 30 30 25 23 24 26 26 25 23 27 26 25 23 22 27 26 16 16 24 26 26 26 23 20 21 23 25 25 24 23 23 24 24
20 19 18 16 14 14 18 20 18 17 15 12 9 12 14 10 10 10 4 5 5 2 10 17 16 13 16 24 31 32 25 18 24 30 30 29 31 33 33 30 28 27 30 32 31 26 26 29 28 30 34 33 31 30 27 29 30 26 23 22 27 27 24 23 27 27 25 21 21 28 30 17 11 23 29 27 28 28 25 26 27 25 23 24 25 25 26 26
20 18 17 16 14 15 18 19 16 15 15 15 10 9 13 11 10 10 6 7 7 3 8 16 18 15 17 26 29 31 29 22 23 27 27 28 31 31 30 28 27 27 29 31 31 27 25 28 27 28 32 30 28 28 28 28 29 28 24 21 26 26 22 22 25 27 19 14 21 28 31 24 12 19 30 29 30 33 32 30 28 25 24 25 26 27 27 27
19 18 17 15 15 17 19 18 15 14 16 17 14 11 12 13 12 9 7 10 8 5 11 17 17 15 19 27 27 29 31 25 24 29 28 29 32 33 29 28 28 29 30 30 31 29 26 27 29 30 30 29 28 28 28 27 29 31 26 20 23 23 21 20 23 24 11 9 23 29 30 28 17 18 30 28 26 32 34 31 29 26 26 25 25 27 27 25
18 17 17 16 17 19 19 17 15 16 18 19 18 15 13 11 14 14 11 8 7 8 13 15 15 18 22 25 26 28 32 29 26 30 32 31 34 36 34 31 32 31 31 32 32 32 30 29 29 29 30 30 28 29 30 28 31 33 29 23 21 16 14 13 15 15 10 13 25 28 27 28 21 18 29 30 27 32 33 31 30 28 27 27 26 26 25 24
18 18 17 17 19 18 17 19 19 16 15 17 16 16 15 10 11 18 18 11 5 5 11 12 14 19 23 26 26 27 30 30 28 30 33 32 32 35 35 31 31 31 31 33 33 32 29 28 30 31 30 31 30 31 33 32 33 34 31 27 22 12 7 8 9 8 11 17 23 26 24 21 16 13 21 29 28 28 31 31 31 29 28 29 27 25 23 23
18 18 17 18 20 19 17 20 20 16 13 14 15 17 17 13 12 15 17 16 12 8 7 9 12 17 21 26 26 27 31 30 28 31 32 32 33 35 36 32 31 32 31 31 33 32 25 23 32 34 31 33 34 33 33 32 33 33 30 28 27 21 12 8 10 10 12 17 22 24 16 8 12 16 17 27 27 27 32 32 31 30 30 29 26 25 23 23
17 17 17 19 20 19 18 19 19 18 15 16 18 19 20 18 15 12 13 15 14 10 7 8 12 15 17 24 26 28 31 29 28 31 31 33 35 36 38 35 33 34 32 28 30 32 27 24 31 33 29 32 35 33 31 31 31 30 29 28 29 30 21 11 12 14 11 12 14 14 7 7 18 23 23 28 29 31 33 31 32 31 29 28 26 25 25 24
17 17 18 19 20 19 18 18 18 18 18 18 19 22 25 22 14 10 11 13 12 6 5 8 12 14 14 21 26 29 32 29 27 30 30 31 34 35 36 34 33 36 33 28 29 31 27 24 29 32 29 31 33 34 33 31 29 28 29 31 30 30 25 15 13 13 6 4 6 12 14 16 21 19 23 29 30 31 29 26 29 28 26 27 27 27 27 26
16 16 18 19 19 18 18 18 18 18 19 19 20 23 25 22 16 13 12 12 10 6 6 8 10 14 15 18 24 30 34 30 26 29 29 30 33 34 36 34 33 36 33 29 29 28 25 22 27 33 32 31 32 32 32 31 29 28 29 30 28 26 25 19 13 8 4 5 7 15 19 20 18 13 20 28 29 30 28 26 27 25 24 26 27 27 26 26
14 16 17 17 19 18 18 17 18 19 18 18 21 23 23 20 18 18 15 13 11 6 5 6 6 10 14 17 22 29 34 30 27 29 27 29 32 34 37 35 32 35 33 28 26 26 25 21 23 31 32 30 32 31 30 31 31 29 28 29 26 22 23 21 13 8 8 7 5 15 20 20 18 18 24 29 29 30 30 28 26 23 24 27 27 27 26 26
12 14 15 16 18 19 18 17 17 17 17 18 22 24 23 19 18 18 16 12 9 6 4 5 7 9 12 18 22 26 33 30 26 28 27 27 29 33 37 35 32 35 35 30 26 24 25 20 19 29 31 28 32 34 31 32 33 30 27 29 28 24 22 22 18 14 12 8 5 9 12 12 16 19 25 30 32 34 31 28 26 24 25 26 26 27 27 25
11 12 12 14 17 19 19 18 17 16 17 20 22 22 20 16 15 16 14 11 8 6 6 6 8 10 14 22 23 20 27 31 27 26 26 26 27 31 37 35 32 35 35 32 27 23 24 21 17 26 31 27 31 36 34 34 36 32 29 31 31 27 25 23 23 22 17 9 6 6 5 9 15 18 23 28 31 33 32 29 27 28 28 27 27 27 25 22
12 11 10 14 19 20 20 18 18 18 18 19 21 20 18 15 14 15 13 11 10 9 8 7 7 10 14 21 21 18 20 27 29 26 25 26 25 27 34 35 32 34 35 34 30 23 22 19 17 25 31 30 32 35 33 33 36 35 32 31 31 30 27 19 16 22 23 14 10 9 4 7 15 20 24 27 27 28 31 32 32 32 31 30 28 25 21 18
13 11 10 15 20 20 19 18 18 18 20 21 20 18 17 15 16 15 12 11 11 9 8 9 10 12 13 14 16 17 19 22 29 27 24 26 25 23 31 35 32 33 35 33 30 24 20 18 19 23 28 30 29 31 31 30 32 34 32 30 30 31 29 20 12 17 22 18 17 14 5 5 13 24 27 26 24 25 29 32 33 33 32 30 26 21 17 16
14 13 12 18 20 18 17 18 18 19 21 21 18 16 16 16 15 14 11 11 11 8 8 10 11 12 13 12 13 15 18 18 24 28 23 25 25 22 27 33 32 32 34 31 27 24 19 17 21 21 23 27 28 30 32 29 28 31 33 31 30 30 31 25 17 16 18 17 16 9 4 5 13 22 26 25 23 24 25 27 30 33 32 27 21 18 16 15
14 13 12 17 19 17 18 19 17 17 18 17 17 18 17 16 16 14 12 12 11 9 9 10 9 12 13 8 7 12 13 13 19 27 22 22 24 22 25 32 32 31 33 31 27 26 20 18 24 20 15 20 22 24 29 32 31 31 32 33 30 30 30 26 22 16 12 15 15 4 6 8 18 24 26 24 22 23 22 23 25 27 27 22 18 17 16 16
14 11 10 16 18 18 20 19 16 14 15 16 18 17 16 16 16 14 14 12 11 11 11 9 8 12 12 6 6 12 13 11 15 24 22 21 22 22 26 32 31 29 30 28 26 26 19 18 25 20 11 13 14 17 26 34 34 31 32 34 32 29 27 25 23 16 10 14 17 9 13 17 23 26 25 24 23 22 21 22 21 21 19 18 17 17 17 16
12 7 8 16 18 17 17 18 18 17 16 16 15 15 17 17 13 13 16 14 13 13 13 12 11 13 12 9 10 11 12 14 19 21 22 23 21 22 26 31 31 28 27 28 27 26 20 18 23 22 17 18 20 23 29 32 31 31 32 33 33 30 28 25 22 18 15 14 10 13 20 25 28 28 27 27 26 23 23 24 22 21 19 17 17 16 16 15
10 4 9 16 15 15 17 18 18 17 15 14 13 12 15 16 13 15 17 17 16 15 15 15 15 15 13 10 10 8 7 17 25 18 18 21 20 20 25 29 29 27 28 29 26 24 22 19 21 22 19 18 22 25 29 31 32 32 31 31 31 31 30 27 23 22 22 14 8 17 23 27 33 32 30 31 29 27 26 24 22 20 18 17 16 16 15 14
8 2 9 15 13 12 15 17 17 16 14 13 12 11 12 14 14 15 17 19 19 15 12 12 13 17 16 10 8 8 5 16 23 15 13 19 20 19 24 28 27 26 29 29 24 21 21 18 19 22 20 17 18 22 27 32 32 30 28 28 30 30 30 27 22 21 20 11 12 23 24 28 35 35 32 32 30 29 26 22 20 19 16 16 15 14 14 13
6 3 6 14 14 12 13 13 13 16 15 14 13 11 11 13 14 15 17 21 19 13 11 13 12 14 17 13 10 11 8 13 20 17 14 20 22 20 22 28 27 25 29 29 24 21 18 15 17 19 18 17 18 21 26 28 28 30 27 25 29 31 27 21 14 15 14 9 17 25 26 29 35 36 34 33 31 30 25 20 19 18 15 15 14 13 14 13
5 5 1 10 14 12 13 14 13 15 16 16 14 11 11 14 15 14 14 16 16 12 11 14 14 13 15 16 14 14 11 10 16 19 17 22 26 21 19 24 25 25 29 27 25 23 17 14 16 16 17 19 17 18 25 27 27 29 24 18 22 24 17 11 11 13 16 20 23 24 27 30 33 35 35 35 33 29 23 20 19 17 15 15 14 13 13 12
6 7 4 6 11 10 10 12 12 12 14 15 14 13 13 14 14 13 13 14 15 15 12 12 13 12 13 16 15 15 14 12 15 17 16 24 30 22 16 20 23 25 29 26 24 23 16 12 16 17 17 17 14 12 20 25 23 20 15 11 13 15 16 17 17 14 15 23 25 23 26 28 30 34 36 34 30 25 21 21 21 18 16 15 15 14 12 10
7 7 2 4 7 6 5 7 9 10 13 13 12 14 14 13 12 12 14 13 13 15 15 13 12 14 15 16 17 17 15 13 15 17 15 20 27 22 15 17 22 25 27 25 23 21 15 12 19 21 16 13 14 12 14 18 16 11 11 11 9 13 17 18 19 14 11 15 19 17 18 20 26 33 36 33 29 26 24 23 21 18 17 17 15 13 11 10
Wind_Direction
278 277 276 276 275 273 272 270 267 265 263 261 260 259 258 258 257 257 256 255 254 253 252 250 248 247 245 245 243 243 241 240 238 238 235 229 231 233 230 229 227 225 224 225 225 225 225 225 222 216 211 205 206 200 201 217 214 217 227 232 237 233 234 241 245 238 236 211 177 197 188 199 207 202 200 193 192 172 175 168 162 204 205 191 200 212 191 169
280 278 277 276 275 274 273 271 269 267 265 263 261 259 258 257 256 255 254 254 253 253 252 251 249 247 246 245 244 243 241 241 239 239 235 228 231 232 228 226 224 222 221 222 224 224 222 221 217 209 202 200 216 211 203 216 213 212 222 228 231 230 232 238 241 250 241 176 169 185 178 193 208 204 200 190 187 178 174 172 192 215 211 212 206 188 179 160
281 280 278 277 276 275 273 272 270 269 267 265 263 261 258 256 255 254 253 252 252 252 251 250 250 248 247 246 245 244 243 242 241 241 235 228 231 230 226 225 223 222 219 218 219 217 213 213 214 206 201 204 216 216 209 214 215 214 219 227 232 231 234 240 236 248 1 126 161 209 181 183 190 191 195 194 188 182 190 188 200 219 215 210 201 182 169 160
283 282 280 279 277 276 274 273 271 270 269 266 265 263 260 258 256 254 252 252 251 250 249 248 248 248 248 246 245 244 243 245 245 242 233 228 230 228 227 224 221 221 218 217 217 209 196 199 212 210 207 213 218 216 213 212 213 215 220 227 229 232 238 246 240 241 264 159 74 136 180 187 178 172 188 193 191 196 215 204 201 225 226 209 200 193 167 162
286 284 283 281 280 278 277 275 273 271 270 268 266 263 262 259 257 255 253 251 250 249 248 247 246 246 247 246 245 244 243 248 251 244 234 228 227 226 225 223 220 219 217 217 219 209 191 195 209 214 214 216 218 216 215 212 215 219 225 229 226 232 244 254 249 237 238 213 174 103 173 199 190 186 186 191 200 211 216 201 194 214 227 210 196 193 168 161
288 287 286 284 282 281 279 278 276 274 271 269 267 265 262 260 258 256 254 252 251 249 247 246 244 243 244 244 244 243 237 236 246 244 236 227 224 224 223 222 219 217 217 216 217 210 194 196 207 214 217 218 218 218 217 214 220 226 231 233 230 239 249 253 251 226 220 205 196 203 223 204 187 196 197 197 207 217 207 185 187 202 220 211 192 187 168 162
289 288 287 286 285 283 282 280 278 276 273 271 269 267 264 262 260 257 255 253 251 250 248 246 244 242 242 242 241 241 235 227 235 239 235 230 225 223 221 220 218 217 218 216 216 209 197 199 207 212 216 220 222 222 221 219 220 226 232 235 236 242 241 241 240 221 220 213 213 236 245 210 187 203 203 195 183 218 217 191 187 195 200 191 185 184 163 160
289 288 287 286 285 285 284 283 281 278 275 272 269 268 267 264 261 259 256 253 251 249 248 245 244 243 241 240 239 239 235 227 232 236 232 232 227 224 221 218 218 218 218 217 216 211 202 204 208 210 216 221 223 224 223 223 224 227 232 234 239 240 235 233 231 230 231 219 213 226 232 200 193 202 197 188 164 168 206 195 197 195 186 168 169 166 152 165
288 287 287 286 285 285 284 283 281 279 276 273 270 268 267 266 263 260 257 254 251 248 247 245 243 243 240 239 238 238 236 226 229 237 231 232 230 225 222 219 218 219 218 217 216 211 206 208 210 210 216 222 225 228 226 227 229 228 230 233 238 239 234 232 230 233 226 210 210 215 212 202 205 202 195 188 169 169 158 163 195 205 196 177 171 162 154 176
288 287 287 285 285 284 283 282 280 278 277 274 272 270 267 266 264 261 258 255 252 248 245 243 241 241 240 238 236 237 236 223 224 237 233 232 232 227 223 220 218 219 218 215 214 211 205 208 213 212 220 227 228 232 230 230 232 230 231 235 236 237 234 229 229 229 221 212 210 212 208 204 209 198 190 179 167 173 157 154 170 194 203 181 173 172 165 181
289 288 287 286 285 284 283 282 279 277 275 274 273 272 271 268 265 261 259 256 253 250 246 242 239 239 239 238 236 236 231 215 216 228 230 229 229 226 224 220 218 217 217 215 214 212 205 204 211 215 224 229 230 237 236 234 234 234 235 235 234 234 235 229 225 224 220 218 210 208 209 202 203 198 192 183 175 178 168 161 154 167 211 206 182 178 178 187
290 289 288 287 285 285 284 281 278 276 273 273 272 272 272 270 267 262 258 255 252 249 246 243 239 238 239 238 236 234 223 206 207 210 220 228 227 225 224 219 217 216 216 215 214 211 205 201 209 217 223 227 230 235 242 238 233 235 235 233 235 230 231 230 222 219 216 214 204 200 211 205 201 201 197 190 183 185 183 173 170 184 201 208 193 184 187 197
289 289 288 287 286 285 283 281 278 275 273 272 271 271 271 270 266 261 256 253 250 248 245 243 240 239 240 240 238 233 221 212 212 210 211 221 223 223 224 218 213 214 214 214 213 211 205 201 211 220 222 226 229 230 240 242 229 230 229 229 235 229 228 225 217 215 210 209 198 195 212 205 197 202 197 189 180 182 187 174 178 196 195 193 199 189 184 193
290 289 289 287 286 285 283 280 277 276 274 271 269 269 268 266 263 260 257 253 251 248 244 242 241 239 241 243 239 230 222 220 221 219 217 218 217 217 221 217 210 210 212 211 208 209 209 205 213 223 225 227 230 233 239 242 226 223 225 227 231 230 226 218 212 209 204 205 195 197 214 200 194 204 194 181 177 181 186 175 177 190 192 196 205 194 184 189
290 290 289 287 286 284 282 279 276 275 273 268 266 266 265 264 262 261 258 255 253 248 244 240 239 240 243 246 243 230 223 223 224 223 223 222 217 215 220 217 213 212 212 212 205 203 210 210 215 221 223 225 230 235 233 234 226 217 220 224 225 231 230 213 207 204 199 203 194 198 214 204 194 195 184 175 175 182 182 184 194 194 196 207 207 195 187 191
290 290 289 288 286 284 281 277 275 274 268 263 262 263 264 264 263 262 259 255 251 245 240 237 236 239 244 247 247 233 223 226 226 224 224 222 218 215 217 216 213 212 213 213 203 197 207 213 215 219 221 222 225 230 228 225 223 214 216 223 220 223 230 214 203 200 199 201 195 196 209 213 198 181 175 176 177 187 186 191 204 200 204 217 211 196 185 187
290 289 288 287 285 284 280 275 272 269 262 258 259 261 263 262 262 259 256 252 247 243 237 235 235 240 246 248 247 238 229 230 228 224 223 219 217 213 208 209 211 211 212 210 201 195 204 211 211 215 219 220 218 219 223 220 217 211 211 221 222 216 226 219 195 194 200 200 195 199 212 222 195 175 174 182 184 192 191 195 202 190 199 212 206 195 186 190
291 288 287 286 285 283 278 272 269 262 255 255 256 258 260 261 263 260 257 251 242 238 231 228 230 236 253 259 255 251 241 239 231 221 221 216 214 212 204 200 206 208 208 206 202 196 200 206 206 212 214 215 213 211 216 217 211 210 207 214 223 215 222 223 193 187 196 198 196 204 216 219 174 170 178 187 190 195 193 196 198 185 190 207 206 200 192 193
292 288 286 285 284 282 276 269 262 254 249 250 250 252 255 257 262 263 262 253 242 239 235 238 240 238 244 344 336 264 223 239 234 216 217 216 211 210 201 195 202 204 201 204 204 197 196 201 202 208 210 208 210 209 213 215 211 213 209 211 222 216 219 226 204 185 189 195 198 208 216 207 178 177 181 184 189 195 196 197 202 198 197 205 209 208 199 195
293 289 286 284 284 279 273 264 253 246 243 243 241 241 241 248 279 284 272 260 250 246 245 252 261 256 230 155 58 288 209 221 231 215 214 214 210 206 197 193 199 203 201 202 201 195 193 200 204 207 208 206 208 210 213 219 220 218 213 213 221 219 220 224 205 184 186 192 198 211 214 199 187 189 185 185 188 194 196 193 202 206 200 200 197 195 200 197
294 290 286 285 284 277 270 257 243 239 237 236 234 232 224 208 259 293 282 273 259 244 233 225 241 257 224 161 140 230 222 213 216 215 212 208 205 201 195 192 197 201 202 200 196 194 196 206 211 209 207 206 208 211 213 222 230 228 219 215 219 221 222 219 195 178 184 193 198 208 206 188 185 189 186 184 184 192 194 188 193 194 190 200 201 197 200 194
293 291 287 285 283 275 265 248 235 233 234 233 229 229 226 212 218 266 274 276 264 243 235 216 215 238 221 169 158 182 207 215 203 205 204 197 199 197 193 193 197 200 198 196 194 195 203 212 214 209 207 207 209 211 212 222 232 236 229 216 217 222 219 211 190 176 184 195 197 196 186 174 178 181 179 180 180 185 187 183 191 194 194 202 205 201 200 196
290 290 288 286 282 272 258 238 230 230 231 231 228 229 229 222 230 272 273 272 267 246 242 228 212 224 214 181 175 182 208 218 201 199 196 191 196 194 192 193 197 199 195 196 198 197 206 214 211 205 206 206 208 210 211 220 229 236 236 220 215 217 216 210 192 183 188 194 198 190 172 163 169 173 177 181 181 181 182 184 194 199 200 205 209 206 203 203
286 288 287 286 279 267 250 231 224 225 229 229 229 233 233 229 233 262 267 267 270 254 242 239 222 226 214 186 193 206 210 214 205 203 197 191 194 192 193 196 196 199 199 199 201 204 209 212 205 203 205 205 209 209 208 217 224 229 235 229 216 210 216 214 192 182 183 194 208 190 165 165 173 172 175 179 177 173 173 180 195 203 202 207 214 206 196 195
282 284 285 285 274 260 243 223 216 219 224 223 228 236 240 245 241 256 271 267 276 268 238 235 229 229 214 192 203 208 207 214 207 205 202 194 193 191 193 198 197 200 202 200 203 210 213 208 201 202 204 204 208 209 206 212 219 223 229 229 216 205 215 213 187 179 181 197 210 186 159 169 179 178 176 175 176 177 178 178 190 201 202 207 212 200 187 187
279 281 284 283 268 255 232 213 212 216 221 219 233 239 233 245 241 251 278 269 278 278 234 225 227 226 212 199 202 201 214 222 203 196 203 197 192 192 193 197 201 203 202 200 205 212 212 206 201 201 203 203 206 210 207 207 214 219 218 222 221 211 213 203 178 181 189 200 203 185 175 175 179 188 185 177 176 179 187 192 197 203 203 210 213 205 195 190
277 279 282 278 263 248 220 209 209 205 199 191 216 231 226 235 232 235 269 260 276 275 215 207 216 218 211 202 195 194 210 217 199 192 198 199 194 193 197 197 200 204 200 197 204 211 209 203 200 201 202 202 206 209 206 204 211 217 210 217 226 216 213 200 176 185 199 205 200 186 185 183 184 195 191 185 185 179 183 189 196 203 204 210 213 210 208 205
275 277 279 274 257 234 214 210 205 190 173 166 201 228 228 233 230 221 241 242 271 270 185 191 198 208 205 197 193 196 201 200 200 191 184 200 200 193 202 202 198 203 199 198 205 206 204 202 200 199 201 203 205 207 204 203 211 215 208 215 224 220 222 203 176 184 201 208 211 197 191 191 192 194 187 184 185 181 178 178 188 200 204 209 214 217 219 219
271 274 275 270 249 221 210 210 203 195 190 181 199 226 221 221 219 212 228 244 242 191 177 180 184 194 192 189 192 198 199 194 201 186 172 195 202 193 203 205 199 203 202 203 208 203 201 204 201 198 202 205 204 204 203 202 207 211 207 211 221 226 232 210 183 188 200 208 221 208 198 200 197 190 185 183 186 184 177 179 191 201 204 210 214 218 222 224
268 271 272 264 239 214 208 206 201 205 204 194 196 208 207 208 207 209 224 234 233 203 183 185 186 189 184 186 191 197 201 199 197 186 177 193 199 196 204 205 202 205 205 208 211 207 202 204 205 202 203 205 202 202 205 203 202 210 212 208 215 225 234 223 198 191 197 210 223 215 204 205 201 185 187 190 193 188 181 185 196 203 206 211 214 219 225 227
265 268 268 258 232 213 206 198 195 206 205 206 214 204 196 202 202 210 223 228 234 193 183 193 194 191 187 188 190 195 202 202 193 188 186 189 193 197 201 203 204 204 205 207 208 209 203 201 207 206 202 203 201 201 204 202 198 210 220 207 206 221 233 228 201 190 194 213 216 216 209 211 214 193 190 193 197 196 194 198 201 202 208 212 216 223 228 229
262 265 263 251 229 214 206 195 191 200 202 210 221 207 194 207 214 220 225 229 236 197 186 195 196 194 193 191 191 195 200 202 194 188 188 188 189 195 199 199 199 197 199 201 201 205 204 200 204 204 200 201 199 197 200 199 197 210 223 210 199 213 224 217 191 186 210 218 215 211 203 213 221 195 186 191 200 202 200 203 205 206 211 216 221 225 226 225
260 262 260 245 225 212 209 203 195 196 200 207 213 199 193 214 226 223 226 230 239 200 187 191 197 198 196 194 195 196 198 200 196 188 190 193 192 196 201 202 200 198 197 196 196 201 202 201 203 202 199 198 196 194 195 195 198 208 216 207 199 200 206 199 183 190 214 219 220 210 200 211 205 165 171 183 188 193 195 204 211 210 214 219 221 219 218 218
258 260 256 240 222 209 205 207 201 196 196 195 192 188 198 223 234 227 230 236 252 260 217 196 202 204 201 198 197 194 195 201 199 189 188 196 196 195 200 204 203 201 198 195 192 195 198 199 199 196 192 194 199 200 196 195 201 207 208 204 202 205 209 193 186 196 201 209 215 205 202 206 153 133 156 172 175 187 199 209 213 212 217 220 217 212 210 211
259 259 252 234 218 207 203 207 204 200 199 192 186 194 212 225 229 233 236 239 251 254 227 216 213 208 206 205 201 193 193 199 200 191 189 197 198 194 197 203 202 199 198 195 190 193 200 201 196 194 192 193 199 203 198 194 200 205 205 206 204 207 211 205 211 219 209 210 207 182 145 117 138 142 154 164 175 192 201 207 211 213 218 218 210 205 205 206
259 256 246 227 213 205 202 206 204 205 209 200 195 209 220 220 225 243 247 247 260 258 224 223 209 201 205 208 204 195 194 200 199 194 193 197 200 196 196 201 200 196 198 197 190 191 199 199 193 195 199 198 198 203 201 196 197 200 205 208 203 205 208 200 216 234 241 245 190 134 110 123 141 152 164 169 177 189 196 204 210 216 219 213 203 199 202 205
259 251 237 218 207 202 200 203 203 209 213 205 206 220 224 226 239 257 268 270 276 273 230 217 203 202 206 210 206 195 195 202 198 193 194 198 200 198 197 200 199 197 199 200 194 192 197 195 189 193 201 201 198 203 205 201 198 198 204 205 200 207 213 202 203 217 219 242 181 136 134 145 148 154 175 182 182 186 197 206 213 220 216 204 198 198 202 205
255 242 228 210 202 198 196 200 203 210 214 208 217 226 224 230 243 250 263 274 278 277 230 219 213 204 203 214 210 193 194 202 198 193 195 197 199 197 196 198 198 198 199 197 196 201 205 197 185 191 199 197 196 204 209 204 202 204 204 199 197 208 211 199 199 204 198 226 183 137 146 163 169 163 172 187 193 193 200 208 212 213 205 198 195 198 203 207
245 231 220 204 198 191 188 196 202 210 213 211 221 227 223 229 245 249 254 265 277 291 262 238 229 214 211 222 218 198 193 197 196 197 196 197 198 194 194 198 197 197 197 195 198 204 211 206 185 189 196 192 192 205 210 199 200 209 206 199 205 216 213 199 200 209 206 213 195 155 157 176 188 186 183 189 196 200 203 205 207 205 201 199 196 198 204 207
223 216 207 194 191 185 181 188 199 211 216 214 220 228 230 238 254 262 269 274 275 274 263 252 239 230 217 214 221 221 206 197 194 200 201 200 197 189 193 199 196 193 194 198 202 203 209 211 189 186 194 193 192 202 207 196 194 201 200 198 206 216 218 210 205 209 215 218 192 172 163 167 181 199 203 196 195 202 205 203 204 206 203 200 199 201 203 203
202 201 197 183 179 177 177 184 198 211 220 221 223 229 238 246 254 263 272 268 261 259 256 257 249 231 211 211 228 250 235 207 196 201 205 204 200 190 192 197 193 190 193 199 205 203 203 204 189 186 192 196 197 199 202 198 195 199 201 201 205 210 214 214 206 207 214 223 214 192 154 142 164 180 195 199 196 201 209 208 207 208 205 202 202 203 201 199
193 196 193 177 172 172 179 191 201 212 219 222 225 232 241 248 253 261 265 256 255 260 255 258 258 234 219 234 248 252 251 223 197 197 206 205 203 197 193 193 192 190 190 197 202 201 200 193 183 188 193 196 199 198 200 201 198 200 207 208 207 210 214 215 208 204 208 221 223 202 155 119 166 176 183 191 194 200 211 213 210 209 207 204 203 201 198 197
197 203 189 172 170 174 186 199 206 214 219 222 228 237 244 249 254 258 258 251 247 246 247 251 255 243 235 253 252 236 254 246 201 194 205 205 204 203 194 191 192 190 189 193 194 193 199 188 174 185 199 202 201 198 200 206 204 201 206 211 211 210 214 221 225 213 208 219 221 197 127 136 167 172 176 183 192 202 209 211 210 209 206 203 199 195 194 196
199 205 189 173 174 181 192 200 203 212 221 228 235 241 245 246 250 253 251 247 240 242 255 251 250 250 235 232 241 234 260 263 203 191 201 204 201 201 195 191 192 191 191 191 186 183 187 182 176 180 197 204 202 194 196 208 215 209 205 211 216 213 211 218 226 226 223 226 221 176 91 151 165 165 171 182 196 203 206 207 207 207 205 199 192 191 194 197
195 207 192 177 182 190 194 194 197 211 222 229 236 242 246 246 250 252 249 248 242 239 250 253 255 250 228 212 256 255 266 263 204 188 196 201 200 198 192 190 190 190 190 188 182 179 178 178 182 185 189 195 196 189 192 202 211 209 205 209 214 215 213 212 213 214 216 224 221 175 124 143 162 167 172 186 198 201 202 200 196 195 196 193 188 189 194 199
197 216 174 166 182 198 198 193 200 213 217 222 234 241 242 246 251 245 237 237 239 240 246 249 244 238 234 238 248 254 258 229 193 183 193 195 193 193 188 186 188 188 188 186 182 181 181 182 188 196 201 199 198 197 194 197 202 203 204 207 211 218 223 219 211 207 208 214 202 161 149 152 160 167 175 188 201 206 205 198 187 182 183 185 188 192 195 199
204 207 154 164 185 202 204 203 209 218 218 218 229 237 241 245 248 244 239 240 248 253 252 248 237 228 232 236 233 252 251 200 188 190 200 189 180 185 185 183 187 186 184 184 182 181 186 189 192 202 207 201 201 201 195 195 201 203 203 204 207 215 223 222 214 209 213 216 158 152 164 161 160 168 180 193 204 212 209 199 186 183 182 182 188 193 197 202
228 229 160 175 188 197 207 213 218 224 226 225 231 241 248 245 241 246 252 255 259 256 244 243 236 224 221 219 231 258 235 190 194 204 195 173 168 180 183 181 186 187 181 181 183 184 190 193 194 203 210 206 209 209 201 197 200 204 207 206 203 211 224 230 220 207 213 214 149 154 161 157 161 174 187 196 205 211 207 195 184 184 182 182 188 194 200 207
259 312 169 185 195 200 206 213 223 229 233 242 246 245 251 248 242 248 255 254 251 242 235 241 232 216 217 220 235 250 234 201 203 202 183 170 169 174 177 175 180 184 180 181 187 190 194 196 195 200 204 208 221 220 205 197 197 201 209 211 203 205 219 230 211 191 199 176 144 154 155 152 165 179 187 193 201 204 199 187 179 179 179 182 189 195 201 206
290 329 226 198 204 206 200 201 216 230 235 246 250 242 247 252 248 250 251 245 240 235 240 241 224 206 216 226 235 245 244 217 198 192 186 182 177 173 173 172 173 178 180 182 188 191 194 194 192 191 192 201 221 219 203 199 199 198 203 212 203 191 186 179 153 152 158 143 141 159 161 158 171 183 189 194 197 195 190 183 180 179 182 187 190 193 198 200
307 325 329 214 204 205 203 201 207 222 231 242 249 245 245 248 246 249 249 246 248 244 234 228 222 216 226 233 233 236 237 218 191 187 192 189 183 179 178 177 176 179 181 184 189 192 192 179 174 176 185 202 218 208 195 197 196 185 173 181 189 160 132 131 135 139 149 142 144 163 171 172 183 191 197 199 194 189 188 189 187 186 189 192 193 194 195 193
331 332 298 210 209 215 228 211 200 216 228 232 241 245 248 251 250 253 257 259 260 243 215 199 209 220 225 224 219 221 227 214 191 185 192 193 186 183 183 184 182 181 182 186 190 191 190 177 172 172 175 199 207 186 166 167 167 150 122 125 140 132 128 131 127 129 154 157 155 164 177 190 196 197 201 198 189 189 192 190 188 189 192 195 196 199 195 186
Height
3074 3074 3073 3073 3073 3073 3073 3073 3073 3074 3074 3074 3075 3075 3076 3076 3077 3077 3078 3078 3079 3081 3082 3083 3085 3087 3088 3089 3090 3092 3093 3094 3095 3095 3098 3102 3101 3102 3105 3106 3107 3109 3110 3112 3113 3115 3116 3118 3119 3121 3122 3123 3125 3127 3130 3132 3134 3135 3135 3135 3135 3134 3134 3133 3133 3134 3133 3132 3132 3132 3133 3136 3137 3136 3138 3140 3141 3141 3143 3144 3142 3140 3142 3145 3146 3147 3148 3150
3071 3071 3071 3070 3070 3070 3070 3070 3070 3070 3071 3071 3072 3072 3073 3073 3073 3074 3074 3075 3076 3078 3079 3080 3082 3083 3085 3086 3087 3089 3090 3091 3092 3092 3097 3100 3098 3101 3104 3104 3106 3107 3109 3111 3112 3114 3116 3117 3119 3120 3121 3123 3125 3127 3129 3131 3132 3133 3134 3134 3133 3133 3132 3132 3133 3132 3130 3130 3131 3132 3133 3135 3136 3136 3137 3139 3140 3141 3142 3142 3140 3140 3143 3144 3146 3147 3147 3149
3068 3068 3068 3067 3067 3067 3067 3067 3067 3067 3068 3068 3068 3069 3069 3070 3070 3070 3071 3072 3073 3074 3076 3077 3079 3080 3081 3083 3084 3086 3087 3088 3088 3090 3096 3097 3097 3100 3102 3102 3104 3106 3108 3110 3111 3113 3115 3117 3118 3120 3121 3123 3125 3127 3128 3130 3130 3131 3132 3131 3131 3131 3131 3132 3132 3130 3130 3130 3131 3132 3133 3135 3135 3135 3137 3138 3139 3140 3141 3141 3139 3139 3142 3144 3146 3147 3147 3148
3066 3065 3065 3064 3064 3064 3064 3063 3063 3064 3064 3065 3065 3065 3066 3066 3066 3067 3067 3068 3069 3071 3072 3074 3076 3077 3079 3080 3082 3083 3084 3085 3085 3088 3093 3094 3096 3098 3099 3101 3103 3104 3107 3108 3110 3111 3114 3117 3119 3120 3122 3123 3125 3126 3128 3129 3129 3129 3129 3129 3130 3130 3130 3131 3131 3130 3130 3130 3131 3132 3133 3134 3135 3135 3136 3138 3140 3140 3141 3141 3138 3137 3141 3144 3145 3146 3146 3148
3063 3063 3062 3062 3061 3061 3060 3060 3060 3061 3061 3061 3061 3062 3062 3063 3063 3064 3064 3065 3066 3067 3069 3071 3073 3075 3076 3077 3079 3080 3082 3085 3083 3084 3089 3092 3094 3095 3097 3099 3101 3103 3105 3107 3108 3110 3112 3116 3119 3121 3121 3123 3124 3126 3127 3127 3128 3128 3128 3128 3128 3129 3130 3130 3130 3130 3131 3131 3132 3133 3134 3134 3135 3135 3136 3138 3140 3138 3138 3138 3136 3134 3139 3143 3145 3145 3146 3147
3061 3060 3060 3059 3058 3058 3057 3057 3057 3057 3057 3057 3058 3058 3059 3059 3059 3060 3061 3061 3063 3064 3066 3068 3070 3071 3073 3074 3076 3077 3081 3083 3079 3080 3086 3089 3091 3093 3095 3097 3099 3101 3103 3104 3106 3108 3111 3114 3118 3120 3120 3121 3123 3125 3125 3126 3127 3126 3127 3127 3125 3127 3130 3129 3129 3130 3129 3129 3132 3134 3133 3134 3135 3136 3137 3139 3139 3135 3135 3135 3134 3135 3138 3142 3144 3145 3145 3146
3058 3057 3057 3056 3056 3055 3054 3054 3053 3054 3054 3054 3054 3055 3055 3055 3056 3056 3057 3058 3059 3061 3063 3065 3067 3068 3070 3071 3073 3074 3077 3079 3076 3078 3083 3086 3089 3090 3092 3094 3096 3099 3100 3102 3105 3107 3109 3112 3115 3118 3120 3120 3121 3123 3124 3125 3126 3125 3126 3126 3125 3126 3128 3128 3129 3128 3127 3128 3132 3133 3132 3133 3135 3136 3137 3138 3137 3134 3133 3134 3135 3137 3138 3141 3143 3144 3145 3146
3055 3055 3054 3053 3053 3052 3051 3051 3050 3050 3050 3051 3051 3051 3051 3052 3052 3053 3054 3055 3056 3058 3060 3062 3064 3065 3066 3067 3070 3070 3071 3075 3076 3078 3082 3084 3085 3087 3089 3092 3094 3096 3098 3100 3103 3106 3108 3111 3114 3116 3118 3119 3120 3122 3123 3124 3124 3124 3124 3125 3125 3126 3126 3127 3128 3127 3127 3128 3131 3132 3132 3134 3135 3136 3137 3137 3137 3135 3132 3134 3136 3138 3139 3141 3142 3142 3144 3146
3052 3051 3051 3050 3050 3049 3048 3048 3047 3047 3047 3047 3048 3048 3048 3049 3049 3049 3050 3051 3053 3055 3056 3059 3060 3061 3063 3064 3066 3064 3066 3075 3077 3076 3080 3081 3082 3084 3087 3090 3092 3094 3096 3099 3102 3104 3106 3109 3112 3115 3117 3118 3120 3120 3122 3122 3122 3122 3123 3124 3124 3125 3125 3126 3126 3127 3127 3128 3130 3131 3132 3134 3134 3135 3137 3136 3137 3137 3134 3135 3136 3138 3140 3141 3142 3142 3144 3145
3049 3048 3048 3047 3047 3046 3046 3045 3044 3044 3044 3044 3044 3045 3045 3046 3046 3046 3047 3048 3049 3051 3053 3055 3057 3058 3059 3061 3061 3059 3064 3075 3076 3075 3078 3078 3079 3082 3085 3087 3089 3092 3094 3097 3099 3101 3104 3108 3111 3114 3116 3117 3119 3119 3120 3120 3120 3121 3122 3122 3122 3123 3124 3124 3125 3126 3127 3128 3129 3130 3131 3133 3134 3133 3135 3135 3136 3137 3136 3136 3136 3137 3139 3141 3142 3143 3143 3145
3046 3045 3045 3044 3044 3043 3043 3042 3041 3041 3040 3041 3041 3041 3042 3043 3043 3043 3044 3045 3046 3048 3050 3052 3053 3054 3055 3056 3054 3055 3064 3073 3074 3075 3076 3076 3077 3080 3082 3085 3087 3089 3092 3095 3097 3100 3103 3106 3111 3113 3114 3115 3116 3118 3118 3119 3119 3120 3120 3120 3121 3122 3123 3123 3124 3124 3125 3127 3127 3129 3131 3132 3133 3131 3133 3134 3135 3137 3136 3136 3138 3137 3137 3140 3142 3142 3143 3144
3043 3042 3042 3041 3040 3040 3039 3039 3038 3038 3038 3038 3038 3039 3039 3039 3040 3040 3041 3042 3043 3045 3047 3049 3050 3050 3051 3050 3048 3053 3064 3068 3068 3071 3072 3073 3075 3078 3080 3082 3085 3087 3090 3093 3096 3098 3101 3105 3109 3111 3112 3113 3115 3116 3116 3117 3118 3118 3119 3119 3119 3120 3120 3121 3122 3123 3124 3125 3126 3129 3129 3130 3131 3130 3131 3132 3133 3137 3136 3136 3139 3138 3136 3138 3140 3141 3143 3144
3040 3039 3039 3038 3037 3037 3036 3035 3035 3035 3035 3036 3036 3036 3037 3037 3037 3037 3038 3039 3041 3042 3044 3046 3047 3047 3046 3042 3044 3055 3062 3062 3062 3063 3065 3068 3072 3075 3077 3080 3083 3085 3088 3091 3094 3097 3100 3103 3106 3109 3111 3112 3113 3114 3114 3115 3116 3116 3117 3117 3118 3117 3117 3118 3120 3121 3123 3124 3125 3127 3126 3127 3129 3129 3130 3131 3132 3136 3135 3137 3140 3137 3135 3137 3139 3140 3142 3143
3036 3036 3035 3035 3034 3034 3033 3032 3032 3032 3033 3033 3033 3034 3034 3034 3034 3035 3036 3037 3038 3040 3041 3043 3043 3044 3040 3037 3043 3053 3057 3058 3059 3059 3060 3064 3069 3072 3074 3077 3081 3083 3086 3088 3092 3096 3099 3102 3105 3107 3109 3110 3111 3113 3113 3113 3113 3114 3115 3115 3115 3114 3113 3116 3118 3120 3121 3123 3124 3126 3125 3125 3127 3127 3129 3130 3132 3135 3135 3137 3138 3134 3134 3137 3139 3140 3142 3143
3033 3033 3032 3032 3031 3031 3030 3029 3030 3030 3030 3031 3031 3031 3031 3032 3032 3033 3034 3035 3036 3037 3039 3040 3040 3040 3036 3034 3041 3050 3053 3053 3053 3056 3059 3063 3067 3069 3071 3075 3079 3081 3083 3086 3089 3094 3097 3100 3103 3104 3106 3108 3109 3110 3111 3111 3111 3112 3112 3111 3112 3112 3111 3113 3115 3117 3120 3121 3123 3124 3123 3123 3124 3126 3127 3129 3132 3134 3135 3136 3135 3133 3134 3136 3139 3140 3141 3142
3030 3030 3029 3029 3028 3028 3027 3027 3027 3028 3028 3029 3029 3029 3029 3030 3030 3031 3032 3033 3034 3035 3036 3037 3037 3037 3033 3033 3040 3046 3048 3046 3049 3055 3059 3062 3065 3067 3071 3074 3077 3080 3082 3084 3087 3091 3096 3099 3100 3102 3104 3106 3106 3107 3108 3108 3108 3108 3108 3108 3109 3110 3109 3110 3111 3114 3118 3119 3121 3122 3121 3121 3122 3123 3125 3128 3131 3133 3134 3133 3132 3134 3134 3135 3138 3140 3141 3142
3027 3027 3026 3026 3025 3025 3024 3025 3025 3025 3026 3027 3027 3027 3028 3028 3028 3029 3029 3030 3031 3032 3033 3034 3034 3034 3030 3033 3037 3040 3042 3043 3048 3054 3056 3059 3062 3064 3069 3072 3075 3078 3080 3083 3086 3089 3093 3095 3097 3099 3101 3102 3103 3105 3105 3103 3103 3104 3106 3106 3106 3107 3107 3106 3107 3111 3115 3117 3119 3120 3119 3120 3120 3121 3123 3127 3130 3132 3133 3132 3132 3134 3133 3134 3137 3139 3141 3142
3025 3024 3023 3023 3022 3022 3022 3022 3023 3023 3024 3025 3025 3026 3026 3027 3027 3027 3027 3028 3029 3029 3030 3030 3032 3032 3031 3033 3035 3037 3040 3043 3046 3051 3053 3056 3059 3062 3066 3070 3074 3077 3079 3081 3083 3086 3090 3092 3095 3096 3096 3097 3098 3099 3098 3097 3099 3101 3103 3104 3104 3105 3105 3103 3104 3108 3112 3115 3117 3117 3118 3120 3121 3121 3123 3126 3129 3131 3133 3131 3130 3132 3133 3134 3137 3139 3140 3140
3022 3021 3020 3020 3020 3019 3020 3020 3021 3022 3023 3023 3024 3024 3025 3025 3025 3026 3026 3025 3026 3026 3027 3028 3028 3029 3032 3033 3033 3036 3039 3041 3044 3047 3049 3052 3056 3060 3063 3068 3072 3075 3077 3079 3080 3082 3086 3089 3091 3089 3088 3089 3091 3094 3095 3096 3099 3100 3101 3102 3102 3102 3102 3101 3102 3105 3109 3113 3115 3115 3116 3120 3121 3122 3123 3125 3128 3130 3132 3130 3129 3131 3133 3134 3136 3138 3140 3139
3019 3018 3018 3017 3017 3017 3018 3018 3019 3020 3021 3021 3022 3023 3024 3024 3025 3025 3023 3022 3023 3024 3025 3026 3025 3026 3029 3031 3033 3037 3039 3041 3043 3043 3046 3049 3053 3057 3061 3065 3070 3072 3073 3075 3077 3080 3084 3085 3082 3080 3082 3086 3090 3093 3096 3097 3097 3098 3099 3100 3100 3100 3099 3098 3100 3103 3107 3111 3113 3114 3115 3118 3120 3121 3123 3124 3127 3129 3130 3130 3130 3131 3133 3135 3136 3136 3137 3138
3017 3016 3015 3015 3015 3015 3015 3016 3017 3018 3019 3020 3021 3022 3022 3023 3024 3024 3021 3020 3020 3021 3021 3023 3023 3023 3026 3028 3030 3036 3040 3040 3042 3043 3045 3048 3051 3054 3057 3061 3065 3066 3068 3073 3077 3079 3080 3078 3075 3077 3082 3087 3090 3092 3095 3095 3095 3096 3097 3097 3098 3098 3096 3096 3098 3101 3106 3109 3111 3112 3113 3116 3118 3120 3122 3124 3126 3128 3128 3130 3131 3132 3133 3133 3133 3134 3135 3137
3014 3013 3013 3013 3012 3013 3013 3014 3015 3016 3017 3018 3019 3020 3021 3021 3022 3022 3021 3018 3017 3018 3018 3020 3021 3020 3024 3026 3026 3032 3037 3038 3040 3042 3044 3046 3048 3051 3054 3058 3060 3062 3066 3071 3074 3074 3074 3070 3072 3079 3084 3087 3090 3091 3094 3094 3093 3094 3094 3095 3095 3095 3094 3095 3096 3099 3104 3107 3108 3111 3112 3115 3118 3120 3121 3123 3125 3127 3128 3130 3131 3131 3131 3129 3130 3133 3134 3136
3012 3011 3011 3010 3010 3011 3011 3012 3013 3014 3016 3017 3018 3019 3020 3020 3020 3021 3020 3018 3016 3016 3016 3016 3017 3018 3021 3023 3025 3029 3033 3035 3037 3039 3042 3044 3045 3048 3052 3055 3057 3061 3064 3066 3067 3067 3066 3067 3073 3080 3082 3085 3087 3089 3092 3092 3092 3092 3091 3091 3091 3092 3092 3091 3093 3097 3102 3105 3107 3110 3112 3114 3117 3119 3121 3123 3124 3125 3127 3130 3129 3128 3128 3127 3129 3132 3134 3136
3009 3009 3008 3008 3009 3009 3009 3010 3012 3013 3014 3016 3017 3018 3018 3018 3019 3020 3019 3017 3013 3012 3012 3013 3014 3015 3017 3021 3024 3026 3030 3032 3034 3037 3039 3041 3043 3046 3050 3053 3056 3059 3061 3062 3064 3064 3064 3068 3074 3078 3080 3083 3084 3086 3089 3089 3089 3089 3089 3087 3087 3090 3090 3089 3091 3095 3101 3105 3105 3107 3111 3114 3116 3118 3120 3121 3123 3124 3126 3128 3127 3127 3127 3127 3128 3130 3132 3135
3007 3007 3006 3006 3006 3007 3007 3009 3010 3011 3013 3014 3016 3016 3017 3017 3018 3018 3017 3015 3011 3008 3009 3010 3011 3012 3014 3019 3021 3023 3027 3028 3029 3034 3037 3038 3041 3044 3048 3051 3054 3055 3057 3059 3062 3063 3065 3069 3072 3075 3077 3079 3081 3083 3085 3086 3087 3087 3086 3085 3086 3088 3088 3088 3090 3094 3099 3101 3102 3103 3108 3113 3115 3117 3119 3120 3121 3122 3124 3125 3125 3125 3126 3126 3126 3127 3129 3133
3004 3004 3004 3004 3004 3005 3006 3006 3008 3010 3012 3014 3015 3015 3016 3017 3017 3017 3017 3015 3009 3004 3005 3007 3007 3008 3010 3014 3017 3023 3026 3024 3025 3031 3034 3036 3039 3043 3046 3049 3050 3052 3055 3059 3062 3062 3063 3067 3069 3071 3074 3076 3079 3080 3081 3084 3085 3084 3084 3085 3085 3086 3086 3087 3090 3094 3096 3098 3099 3101 3104 3110 3114 3115 3116 3117 3119 3121 3122 3123 3123 3124 3126 3125 3125 3126 3128 3131
3002 3002 3002 3002 3002 3003 3004 3005 3007 3009 3012 3014 3014 3014 3015 3015 3016 3017 3017 3016 3007 2999 3000 3003 3004 3004 3006 3010 3015 3019 3020 3020 3022 3026 3031 3034 3037 3042 3044 3045 3047 3049 3053 3057 3058 3057 3060 3063 3066 3068 3071 3073 3075 3075 3078 3081 3082 3081 3083 3085 3085 3084 3084 3086 3089 3094 3097 3098 3099 3100 3103 3107 3110 3112 3114 3115 3118 3119 3120 3122 3122 3122 3123 3123 3124 3126 3127 3129
2999 2999 2999 3000 3000 3001 3002 3003 3005 3008 3010 3012 3012 3013 3013 3014 3016 3016 3017 3015 3005 2997 2998 3001 3003 3003 3005 3009 3012 3014 3016 3020 3022 3022 3027 3032 3035 3039 3041 3042 3045 3047 3050 3052 3051 3053 3057 3060 3062 3065 3068 3069 3070 3072 3076 3079 3079 3080 3082 3085 3084 3083 3083 3085 3089 3093 3097 3098 3097 3097 3101 3104 3106 3109 3111 3113 3115 3117 3118 3120 3119 3119 3120 3122 3123 3124 3125 3127
2997 2997 2997 2997 2998 2999 3000 3002 3005 3007 3008 3009 3010 3011 3012 3014 3015 3015 3017 3013 3001 2997 3000 3000 3002 3004 3006 3009 3011 3014 3017 3020 3022 3022 3026 3030 3032 3036 3038 3040 3044 3047 3049 3050 3049 3052 3055 3057 3060 3063 3064 3065 3068 3072 3074 3076 3078 3079 3081 3084 3083 3083 3083 3084 3087 3091 3095 3096 3094 3094 3098 3101 3103 3106 3108 3110 3111 3113 3115 3117 3116 3116 3119 3121 3122 3122 3124 3125
2994 2995 2995 2995 2996 2997 2998 3000 3004 3006 3007 3008 3008 3010 3011 3013 3013 3014 3015 3008 2998 2998 3001 3000 3002 3004 3006 3009 3010 3013 3016 3018 3021 3023 3025 3029 3031 3034 3037 3040 3044 3046 3047 3048 3049 3051 3053 3056 3059 3060 3062 3064 3068 3071 3072 3074 3077 3078 3079 3082 3082 3082 3082 3083 3084 3088 3092 3093 3092 3092 3095 3097 3100 3102 3104 3106 3107 3108 3110 3112 3113 3115 3117 3118 3119 3121 3122 3124
2991 2992 2992 2993 2994 2995 2996 2999 3002 3004 3005 3006 3007 3009 3010 3011 3012 3012 3008 3001 2997 2999 2999 2999 3002 3004 3005 3007 3009 3012 3014 3016 3019 3021 3023 3026 3029 3031 3035 3037 3039 3042 3044 3045 3047 3049 3051 3053 3054 3056 3060 3063 3066 3069 3070 3073 3076 3076 3076 3080 3081 3080 3081 3080 3081 3086 3090 3090 3090 3091 3093 3095 3095 3097 3102 3106 3106 3106 3107 3110 3112 3114 3115 3117 3118 3119 3121 3123
2989 2989 2990 2991 2992 2993 2995 2997 2999 3000 3002 3004 3006 3008 3009 3010 3009 3006 3001 2998 2998 2997 2997 2999 3001 3003 3004 3006 3008 3010 3012 3014 3016 3018 3020 3023 3025 3027 3029 3030 3032 3035 3037 3039 3043 3045 3047 3048 3051 3053 3057 3060 3062 3065 3067 3070 3073 3073 3074 3077 3078 3078 3079 3077 3077 3082 3086 3086 3087 3088 3091 3093 3093 3095 3100 3103 3102 3103 3107 3110 3111 3113 3114 3115 3117 3118 3120 3121
2986 2987 2987 2988 2989 2991 2993 2995 2996 2998 3000 3002 3005 3006 3008 3008 3002 2999 2998 2998 2997 2995 2996 2998 2999 3001 3003 3004 3006 3008 3010 3012 3013 3016 3019 3021 3023 3026 3027 3029 3030 3031 3032 3036 3039 3041 3043 3046 3049 3050 3053 3057 3059 3060 3061 3064 3067 3069 3070 3072 3072 3073 3075 3075 3076 3081 3083 3084 3085 3087 3089 3090 3092 3095 3098 3099 3098 3100 3106 3108 3109 3111 3112 3114 3116 3117 3118 3120
2983 2984 2985 2985 2987 2989 2991 2993 2994 2997 2999 3001 3003 3004 3005 3002 2997 2996 2998 2997 2996 2995 2996 2997 2998 3000 3001 3002 3004 3006 3008 3010 3011 3014 3017 3019 3021 3023 3025 3027 3029 3030 3032 3034 3037 3038 3039 3041 3043 3045 3049 3053 3056 3057 3058 3062 3065 3066 3067 3070 3069 3069 3071 3071 3073 3078 3080 3081 3083 3085 3088 3089 3090 3094 3096 3097 3098 3100 3103 3105 3106 3110 3111 3112 3114 3115 3117 3119
2981 2981 2982 2983 2985 2987 2989 2991 2993 2995 2997 2999 3001 3002 3000 2996 2995 2997 2997 2996 2996 2995 2995 2996 2997 2998 3000 3001 3002 3004 3006 3007 3009 3011 3014 3016 3017 3018 3021 3023 3025 3028 3029 3030 3033 3036 3037 3037 3040 3045 3048 3051 3054 3056 3059 3062 3064 3065 3067 3068 3067 3068 3070 3070 3072 3074 3076 3078 3079 3082 3087 3090 3091 3094 3095 3096 3097 3098 3101 3103 3106 3108 3109 3111 3113 3114 3116 3119
2978 2979 2979 2980 2983 2986 2988 2990 2992 2994 2995 2997 2998 2997 2993 2993 2995 2996 2995 2995 2995 2994 2995 2996 2996 2997 2999 2999 3000 3002 3004 3005 3007 3009 3011 3013 3015 3017 3019 3020 3022 3025 3027 3028 3030 3032 3034 3035 3040 3045 3048 3050 3053 3055 3057 3059 3060 3063 3064 3063 3064 3068 3070 3071 3073 3074 3075 3077 3078 3081 3086 3091 3092 3094 3096 3096 3096 3098 3101 3103 3106 3107 3108 3110 3111 3114 3116 3118
2976 2976 2977 2979 2982 2984 2986 2988 2990 2992 2993 2994 2994 2992 2991 2993 2994 2994 2993 2994 2994 2994 2994 2995 2995 2997 2998 2998 2998 3000 3002 3003 3005 3006 3008 3011 3012 3014 3017 3019 3021 3024 3026 3028 3030 3031 3033 3035 3039 3043 3045 3048 3052 3055 3056 3057 3059 3060 3060 3061 3066 3069 3069 3071 3073 3074 3076 3077 3077 3080 3084 3088 3091 3093 3095 3095 3096 3098 3100 3103 3105 3106 3108 3109 3111 3113 3115 3117
2974 2974 2975 2978 2980 2982 2985 2987 2989 2990 2991 2992 2992 2990 2991 2993 2993 2993 2993 2993 2993 2993 2993 2994 2995 2996 2997 2998 2997 2998 3000 3001 3003 3004 3006 3007 3008 3010 3014 3017 3020 3023 3026 3028 3030 3032 3032 3034 3038 3042 3044 3047 3052 3053 3053 3056 3058 3058 3060 3062 3066 3066 3066 3068 3070 3072 3075 3075 3076 3080 3083 3085 3088 3088 3091 3094 3095 3097 3099 3101 3103 3105 3106 3108 3110 3112 3114 3116
2972 2973 2974 2977 2979 2981 2984 2986 2988 2989 2989 2989 2990 2990 2990 2991 2992 2992 2993 2993 2992 2993 2993 2994 2994 2995 2996 2997 2996 2997 2999 3000 3002 3003 3003 3004 3005 3007 3012 3015 3018 3022 3025 3028 3030 3031 3031 3032 3036 3040 3043 3045 3049 3050 3049 3052 3055 3057 3059 3062 3064 3064 3064 3066 3067 3070 3072 3071 3074 3082 3084 3084 3086 3087 3089 3092 3093 3094 3097 3099 3101 3103 3104 3106 3108 3110 3112 3114
2971 2972 2973 2976 2978 2980 2983 2985 2987 2987 2987 2987 2989 2990 2991 2992 2992 2992 2992 2992 2992 2993 2994 2993 2993 2994 2995 2995 2995 2996 2998 2999 3001 3002 3003 3003 3004 3005 3010 3013 3015 3019 3024 3027 3029 3030 3031 3031 3034 3039 3042 3043 3044 3044 3044 3047 3050 3053 3055 3058 3060 3062 3063 3064 3065 3067 3069 3068 3070 3078 3082 3083 3085 3087 3088 3089 3090 3092 3094 3097 3099 3101 3103 3105 3107 3109 3111 3113
2971 2972 2973 2975 2977 2979 2982 2984 2985 2986 2986 2987 2988 2990 2991 2992 2993 2992 2991 2991 2992 2993 2992 2992 2992 2993 2994 2994 2994 2995 2997 2998 2999 3002 3003 3003 3004 3004 3007 3011 3014 3018 3022 3025 3027 3029 3030 3031 3034 3037 3039 3040 3040 3042 3044 3046 3049 3051 3053 3055 3058 3060 3061 3061 3061 3063 3066 3066 3066 3071 3078 3081 3083 3086 3087 3087 3088 3090 3092 3095 3097 3099 3101 3104 3105 3108 3110 3113
2970 2971 2973 2975 2977 2979 2981 2983 2985 2986 2986 2986 2988 2990 2991 2991 2991 2991 2991 2991 2992 2992 2991 2991 2992 2992 2993 2994 2995 2995 2996 2996 2997 3000 3002 3002 3003 3004 3006 3009 3013 3016 3020 3022 3025 3028 3029 3031 3034 3036 3037 3039 3041 3043 3045 3047 3050 3052 3054 3056 3057 3058 3059 3058 3059 3061 3063 3065 3065 3067 3074 3081 3082 3083 3086 3088 3089 3089 3091 3093 3096 3098 3100 3102 3105 3107 3110 3112
2970 2970 2972 2975 2977 2979 2981 2982 2984 2985 2984 2985 2988 2990 2991 2990 2990 2990 2991 2992 2992 2991 2991 2992 2992 2992 2994 2995 2995 2996 2996 2995 2995 2998 3001 3002 3003 3004 3006 3009 3012 3015 3018 3021 3023 3027 3029 3030 3034 3037 3039 3040 3042 3044 3046 3047 3049 3051 3053 3054 3055 3056 3057 3058 3059 3060 3061 3063 3064 3066 3074 3081 3082 3083 3085 3088 3089 3089 3091 3093 3095 3097 3099 3101 3104 3107 3109 3111
2970 2970 2971 2974 2976 2978 2980 2981 2982 2984 2984 2986 2988 2989 2989 2989 2989 2989 2990 2991 2991 2991 2991 2991 2991 2992 2993 2994 2994 2995 2996 2995 2994 2996 3000 3001 3002 3004 3006 3008 3011 3014 3016 3019 3022 3024 3027 3029 3032 3035 3038 3039 3040 3041 3044 3046 3047 3048 3050 3052 3053 3054 3056 3057 3059 3060 3061 3062 3063 3068 3075 3080 3081 3083 3085 3086 3088 3089 3091 3094 3095 3097 3099 3101 3103 3106 3107 3109
2969 2970 2971 2973 2976 2977 2978 2980 2982 2984 2985 2986 2987 2987 2988 2988 2988 2988 2989 2990 2990 2990 2990 2990 2990 2991 2992 2992 2993 2994 2995 2994 2993 2996 2999 3001 3001 3003 3005 3008 3011 3013 3016 3019 3022 3024 3026 3028 3030 3031 3032 3033 3033 3034 3037 3040 3042 3045 3047 3049 3050 3052 3054 3056 3058 3060 3061 3062 3064 3067 3073 3079 3082 3083 3085 3085 3086 3088 3091 3093 3095 3097 3099 3101 3103 3105 3106 3108
2970 2971 2971 2974 2976 2977 2978 2979 2980 2981 2983 2984 2985 2986 2986 2986 2986 2987 2987 2988 2988 2988 2988 2988 2989 2990 2991 2992 2993 2994 2994 2992 2992 2995 2998 2999 3000 3002 3004 3007 3010 3013 3016 3019 3022 3024 3026 3028 3029 3030 3030 3031 3032 3033 3037 3040 3041 3042 3044 3047 3049 3051 3053 3054 3056 3057 3060 3063 3065 3065 3068 3075 3081 3082 3084 3086 3086 3087 3090 3092 3094 3096 3097 3100 3102 3104 3105 3107
2970 2971 2973 2975 2976 2977 2978 2979 2980 2980 2982 2983 2984 2984 2985 2985 2985 2985 2985 2986 2986 2986 2987 2987 2988 2989 2991 2992 2993 2993 2992 2992 2992 2994 2996 2998 3000 3001 3004 3007 3010 3013 3015 3019 3021 3024 3026 3027 3028 3030 3030 3032 3034 3036 3038 3039 3040 3041 3043 3046 3049 3050 3051 3053 3054 3056 3058 3061 3065 3067 3067 3070 3078 3081 3081 3083 3084 3085 3088 3090 3093 3095 3097 3099 3101 3103 3105 3106
2971 2972 2974 2975 2976 2977 2978 2979 2980 2981 2982 2982 2982 2983 2983 2984 2984 2984 2983 2984 2985 2985 2985 2985 2986 2988 2989 2990 2992 2993 2993 2993 2993 2994 2995 2996 2998 3001 3003 3007 3010 3012 3014 3018 3021 3023 3025 3026 3027 3028 3030 3032 3033 3034 3036 3038 3039 3042 3043 3044 3048 3050 3050 3052 3053 3054 3057 3059 3063 3069 3069 3070 3076 3079 3080 3082 3083 3084 3087 3090 3093 3095 3097 3099 3101 3102 3104 3106
2972 2972 2973 2975 2976 2976 2978 2979 2981 2981 2982 2982 2981 2981 2982 2982 2983 2982 2981 2982 2983 2983 2984 2984 2985 2987 2988 2989 2991 2992 2993 2995 2995 2994 2996 2997 2998 3000 3002 3005 3008 3011 3014 3018 3021 3023 3024 3024 3026 3029 3031 3032 3033 3033 3035 3036 3038 3041 3044 3044 3047 3050 3050 3050 3051 3052 3055 3058 3061 3067 3071 3072 3076 3078 3078 3081 3082 3084 3087 3090 3092 3095 3097 3099 3100 3102 3103 3105
2973 2973 2973 2974 2975 2975 2976 2978 2980 2981 2982 2981 2980 2980 2981 2981 2980 2980 2980 2980 2981 2982 2983 2982 2983 2986 2988 2990 2992 2992 2992 2994 2994 2994 2996 2998 2999 2999 3002 3004 3007 3010 3014 3017 3019 3021 3023 3023 3026 3029 3031 3033 3033 3033 3034 3036 3038 3041 3043 3044 3046 3048 3048 3049 3051 3052 3054 3057 3061 3064 3068 3072 3075 3077 3077 3079 3081 3084 3088 3090 3092 3094 3097 3098 3100 3101 3103 3104
2974 2974 2974 2974 2975 2976 2977 2977 2978 2980 2981 2981 2980 2979 2979 2978 2978 2978 2978 2978 2979 2980 2980 2981 2983 2986 2988 2990 2991 2992 2992 2992 2993 2994 2996 2998 3000 3001 3003 3005 3008 3010 3014 3016 3018 3020 3021 3023 3025 3028 3030 3032 3032 3031 3032 3035 3037 3039 3041 3042 3043 3044 3046 3047 3050 3053 3054 3057 3060 3063 3065 3069 3072 3075 3076 3078 3081 3085 3088 3090 3092 3094 3096 3098 3099 3101 3102 3104
2974 2974 2974 2975 2975 2976 2977 2977 2978 2980 2980 2979 2979 2979 2977 2977 2977 2976 2976 2976 2976 2977 2978 2979 2981 2985 2986 2987 2989 2990 2992 2993 2993 2994 2996 2999 3001 3002 3004 3007 3009 3011 3013 3015 3017 3020 3021 3023 3024 3027 3029 3032 3031 3031 3032 3033 3035 3038 3040 3041 3041 3042 3045 3048 3050 3054 3057 3058 3060 3062 3064 3067 3069 3071 3074 3078 3082 3085 3087 3089 3091 3093 3095 3097 3098 3100 3102 3103